iso_date,epoch_date,Year,Hour,Min,DOY,POS_DOY,Lat,Lon,BP,Ts,Ta,has_bp,has_ts,has_ta,BuoyID,Buoy_Type,Buoy_Owner,Logistics,Hemisphere
2018-05-03T20:49:55Z,1525380595,2018,20,50,123.868,123.868,83.73113,-78.02225,-999.00,-999.00,-999.0,no,no,no,300234066305100,IT,YorkU,CASIMBO,North
2018-05-03T21:00:00Z,1525381200,2018,21,0,123.875,123.875,83.73113,-78.02228,-999.00,-999.00,-999.0,no,no,no,300234066305100,IT,YorkU,CASIMBO,North
2018-05-03T21:10:04Z,1525381805,2018,21,10,123.882,123.882,83.73113,-78.02228,-999.00,-999.00,-999.0,no,no,no,300234066305100,IT,YorkU,CASIMBO,North
2018-05-03T21:20:09Z,1525382410,2018,21,20,123.889,123.889,83.73112,-78.02232,-999.00,-999.00,-999.0,no,no,no,300234066305100,IT,YorkU,CASIMBO,North
2018-05-03T21:30:14Z,1525383014,2018,21,30,123.896,123.896,83.73113,-78.02229,-999.00,-999.00,-999.0,no,no,no,300234066305100,IT,YorkU,CASIMBO,North
2018-05-03T21:40:19Z,1525383619,2018,21,40,123.903,123.903,83.73113,-78.02227,-999.00,-999.00,-999.0,no,no,no,300234066305100,IT,YorkU,CASIMBO,North
2018-05-03T21:50:24Z,1525384224,2018,21,50,123.91,123.91,83.73113,-78.02226,-999.00,-999.00,-999.0,no,no,no,300234066305100,IT,YorkU,CASIMBO,North
2018-05-03T22:00:28Z,1525384829,2018,22,0,123.917,123.917,83.73113,-78.02219,-999.00,-999.00,-999.0,no,no,no,300234066305100,IT,YorkU,CASIMBO,North
2018-05-03T22:10:33Z,1525385434,2018,22,10,123.924,123.924,83.73113,-78.02219,-999.00,-999.00,-999.0,no,no,no,300234066305100,IT,YorkU,CASIMBO,North
2018-05-03T22:20:38Z,1525386038,2018,22,20,123.931,123.931,83.73113,-78.02217,-999.00,-999.00,-999.0,no,no,no,300234066305100,IT,YorkU,CASIMBO,North
2018-05-03T22:30:43Z,1525386643,2018,22,30,123.938,123.938,83.73112,-78.02212,-999.00,-999.00,-999.0,no,no,no,300234066305100,IT,YorkU,CASIMBO,North
2018-05-03T22:39:21Z,1525387162,2018,22,40,123.944,123.944,83.73112,-78.02217,-999.00,-999.00,-999.0,no,no,no,300234066305100,IT,YorkU,CASIMBO,North
2018-05-03T22:49:26Z,1525387766,2018,22,50,123.951,123.951,83.73112,-78.02223,-999.00,-999.00,-999.0,no,no,no,300234066305100,IT,YorkU,CASIMBO,North
2018-05-03T22:59:31Z,1525388371,2018,23,0,123.958,123.958,83.73113,-78.02221,-999.00,-999.00,-999.0,no,no,no,300234066305100,IT,YorkU,CASIMBO,North
2018-05-03T23:09:36Z,1525388976,2018,23,10,123.965,123.965,83.73112,-78.02235,-999.00,-999.00,-999.0,no,no,no,300234066305100,IT,YorkU,CASIMBO,North
2018-05-03T23:19:40Z,1525389581,2018,23,20,123.972,123.972,83.73113,-78.0224,-999.00,-999.00,-999.0,no,no,no,300234066305100,IT,YorkU,CASIMBO,North
2018-05-03T23:29:45Z,1525390186,2018,23,30,123.979,123.979,83.73112,-78.02227,-999.00,-999.00,-999.0,no,no,no,300234066305100,IT,YorkU,CASIMBO,North
2018-05-03T23:39:50Z,1525390790,2018,23,40,123.986,123.986,83.73112,-78.02217,-999.00,-999.00,-999.0,no,no,no,300234066305100,IT,YorkU,CASIMBO,North
2018-05-03T23:49:55Z,1525391395,2018,23,50,123.993,123.993,83.73111,-78.02229,-999.00,-999.00,-999.0,no,no,no,300234066305100,IT,YorkU,CASIMBO,North
2018-05-04T00:00:00Z,1525392000,2018,0,0,124.0,124.0,83.73111,-78.02219,-999.00,-999.00,-999.0,no,no,no,300234066305100,IT,YorkU,CASIMBO,North
2018-05-04T00:10:04Z,1525392605,2018,0,10,124.007,124.007,83.73111,-78.02225,-999.00,-999.00,-999.0,no,no,no,300234066305100,IT,YorkU,CASIMBO,North
2018-05-04T00:20:09Z,1525393210,2018,0,20,124.014,124.014,83.73112,-78.02224,-999.00,-999.00,-999.0,no,no,no,300234066305100,IT,YorkU,CASIMBO,North
2018-05-04T00:30:14Z,1525393814,2018,0,30,124.021,124.021,83.73111,-78.02223,-999.00,-999.00,-999.0,no,no,no,300234066305100,IT,YorkU,CASIMBO,North
2018-05-04T00:40:19Z,1525394419,2018,0,40,124.028,124.028,83.73112,-78.02209,-999.00,-999.00,-999.0,no,no,no,300234066305100,IT,YorkU,CASIMBO,North
2018-05-04T00:50:24Z,1525395024,2018,0,50,124.035,124.035,83.73112,-78.02204,-999.00,-999.00,-999.0,no,no,no,300234066305100,IT,YorkU,CASIMBO,North
2018-05-04T01:00:28Z,1525395629,2018,1,0,124.042,124.042,83.73112,-78.02204,-999.00,-999.00,-999.0,no,no,no,300234066305100,IT,YorkU,CASIMBO,North
2018-05-04T01:10:33Z,1525396234,2018,1,10,124.049,124.049,83.73112,-78.02201,-999.00,-999.00,-999.0,no,no,no,300234066305100,IT,YorkU,CASIMBO,North
2018-05-04T01:20:38Z,1525396838,2018,1,20,124.056,124.056,83.73112,-78.02205,-999.00,-999.00,-999.0,no,no,no,300234066305100,IT,YorkU,CASIMBO,North
2018-05-04T01:29:16Z,1525397357,2018,1,30,124.062,124.062,83.73108,-78.02187,-999.00,-999.00,-999.0,no,no,no,300234066305100,IT,YorkU,CASIMBO,North
2018-05-04T01:39:21Z,1525397962,2018,1,40,124.069,124.069,83.73111,-78.02206,-999.00,-999.00,-999.0,no,no,no,300234066305100,IT,YorkU,CASIMBO,North
2018-05-04T01:49:26Z,1525398566,2018,1,50,124.076,124.076,83.73111,-78.02204,-999.00,-999.00,-999.0,no,no,no,300234066305100,IT,YorkU,CASIMBO,North
2018-05-04T01:59:31Z,1525399171,2018,2,0,124.083,124.083,83.73111,-78.02206,-999.00,-999.00,-999.0,no,no,no,300234066305100,IT,YorkU,CASIMBO,North
2018-05-04T02:09:36Z,1525399776,2018,2,10,124.09,124.09,83.73111,-78.0221,-999.00,-999.00,-999.0,no,no,no,300234066305100,IT,YorkU,CASIMBO,North
2018-05-04T02:19:40Z,1525400381,2018,2,20,124.097,124.097,83.73111,-78.02207,-999.00,-999.00,-999.0,no,no,no,300234066305100,IT,YorkU,CASIMBO,North
2018-05-04T02:29:45Z,1525400986,2018,2,30,124.104,124.104,83.73111,-78.02213,-999.00,-999.00,-999.0,no,no,no,300234066305100,IT,YorkU,CASIMBO,North
2018-05-04T02:39:50Z,1525401590,2018,2,40,124.111,124.111,83.73111,-78.02212,-999.00,-999.00,-999.0,no,no,no,300234066305100,IT,YorkU,CASIMBO,North
2018-05-04T02:49:55Z,1525402195,2018,2,50,124.118,124.118,83.73111,-78.02208,-999.00,-999.00,-999.0,no,no,no,300234066305100,IT,YorkU,CASIMBO,North
2018-05-04T03:00:00Z,1525402800,2018,3,0,124.125,124.125,83.73111,-78.02204,-999.00,-999.00,-999.0,no,no,no,300234066305100,IT,YorkU,CASIMBO,North
2018-05-04T03:10:04Z,1525403405,2018,3,10,124.132,124.132,83.7311,-78.02208,-999.00,-999.00,-999.0,no,no,no,300234066305100,IT,YorkU,CASIMBO,North
2018-05-04T03:20:09Z,1525404010,2018,3,20,124.139,124.139,83.73109,-78.02219,-999.00,-999.00,-999.0,no,no,no,300234066305100,IT,YorkU,CASIMBO,North
2018-05-04T03:30:14Z,1525404614,2018,3,30,124.146,124.146,83.73109,-78.02214,-999.00,-999.00,-999.0,no,no,no,300234066305100,IT,YorkU,CASIMBO,North
2018-05-04T03:40:19Z,1525405219,2018,3,40,124.153,124.153,83.73109,-78.02214,-999.00,-999.00,-999.0,no,no,no,300234066305100,IT,YorkU,CASIMBO,North
2018-05-04T03:50:24Z,1525405824,2018,3,50,124.16,124.16,83.73109,-78.02212,-999.00,-999.00,-999.0,no,no,no,300234066305100,IT,YorkU,CASIMBO,North
2018-05-04T04:00:28Z,1525406429,2018,4,0,124.167,124.167,83.73109,-78.0221,-999.00,-999.00,-999.0,no,no,no,300234066305100,IT,YorkU,CASIMBO,North
2018-05-04T04:10:33Z,1525407034,2018,4,10,124.174,124.174,83.73109,-78.02209,-999.00,-999.00,-999.0,no,no,no,300234066305100,IT,YorkU,CASIMBO,North
2018-05-04T04:20:38Z,1525407638,2018,4,20,124.181,124.181,83.73109,-78.02212,-999.00,-999.00,-999.0,no,no,no,300234066305100,IT,YorkU,CASIMBO,North
2018-05-04T04:30:43Z,1525408243,2018,4,30,124.188,124.188,83.73107,-78.02227,-999.00,-999.00,-999.0,no,no,no,300234066305100,IT,YorkU,CASIMBO,North
2018-05-04T04:39:21Z,1525408762,2018,4,40,124.194,124.194,83.73109,-78.02209,-999.00,-999.00,-999.0,no,no,no,300234066305100,IT,YorkU,CASIMBO,North
2018-05-04T04:49:26Z,1525409366,2018,4,50,124.201,124.201,83.73109,-78.02209,-999.00,-999.00,-999.0,no,no,no,300234066305100,IT,YorkU,CASIMBO,North
2018-05-04T04:59:31Z,1525409971,2018,5,0,124.208,124.208,83.73108,-78.02215,-999.00,-999.00,-999.0,no,no,no,300234066305100,IT,YorkU,CASIMBO,North
2018-05-04T05:09:36Z,1525410576,2018,5,10,124.215,124.215,83.73108,-78.0221,-999.00,-999.00,-999.0,no,no,no,300234066305100,IT,YorkU,CASIMBO,North
2018-05-04T05:19:40Z,1525411181,2018,5,20,124.222,124.222,83.73108,-78.02212,-999.00,-999.00,-999.0,no,no,no,300234066305100,IT,YorkU,CASIMBO,North
2018-05-04T05:29:45Z,1525411786,2018,5,30,124.229,124.229,83.73108,-78.02209,-999.00,-999.00,-999.0,no,no,no,300234066305100,IT,YorkU,CASIMBO,North
2018-05-04T05:39:50Z,1525412390,2018,5,40,124.236,124.236,83.73108,-78.0221,-999.00,-999.00,-999.0,no,no,no,300234066305100,IT,YorkU,CASIMBO,North
2018-05-04T05:49:55Z,1525412995,2018,5,50,124.243,124.243,83.73109,-78.02213,-999.00,-999.00,-999.0,no,no,no,300234066305100,IT,YorkU,CASIMBO,North
2018-05-04T06:00:00Z,1525413600,2018,6,0,124.25,124.25,83.73109,-78.02218,-999.00,-999.00,-999.0,no,no,no,300234066305100,IT,YorkU,CASIMBO,North
2018-05-04T06:10:04Z,1525414205,2018,6,10,124.257,124.257,83.73108,-78.0222,-999.00,-999.00,-999.0,no,no,no,300234066305100,IT,YorkU,CASIMBO,North
2018-05-04T06:20:09Z,1525414810,2018,6,20,124.264,124.264,83.73108,-78.02218,-999.00,-999.00,-999.0,no,no,no,300234066305100,IT,YorkU,CASIMBO,North
2018-05-04T06:30:14Z,1525415414,2018,6,30,124.271,124.271,83.73109,-78.02225,-999.00,-999.00,-999.0,no,no,no,300234066305100,IT,YorkU,CASIMBO,North
2018-05-04T06:40:19Z,1525416019,2018,6,40,124.278,124.278,83.73109,-78.0222,-999.00,-999.00,-999.0,no,no,no,300234066305100,IT,YorkU,CASIMBO,North
2018-05-04T06:50:24Z,1525416624,2018,6,50,124.285,124.285,83.73109,-78.02222,-999.00,-999.00,-999.0,no,no,no,300234066305100,IT,YorkU,CASIMBO,North
2018-05-04T07:00:28Z,1525417229,2018,7,0,124.292,124.292,83.73109,-78.02216,-999.00,-999.00,-999.0,no,no,no,300234066305100,IT,YorkU,CASIMBO,North
2018-05-04T07:10:33Z,1525417834,2018,7,10,124.299,124.299,83.73109,-78.02217,-999.00,-999.00,-999.0,no,no,no,300234066305100,IT,YorkU,CASIMBO,North
2018-05-04T07:20:38Z,1525418438,2018,7,20,124.306,124.306,83.73109,-78.02228,-999.00,-999.00,-999.0,no,no,no,300234066305100,IT,YorkU,CASIMBO,North
2018-05-04T07:29:16Z,1525418957,2018,7,30,124.312,124.312,83.73107,-78.02241,-999.00,-999.00,-999.0,no,no,no,300234066305100,IT,YorkU,CASIMBO,North
2018-05-04T07:39:21Z,1525419562,2018,7,40,124.319,124.319,83.73109,-78.0222,-999.00,-999.00,-999.0,no,no,no,300234066305100,IT,YorkU,CASIMBO,North
2018-05-04T07:49:26Z,1525420166,2018,7,50,124.326,124.326,83.73109,-78.02222,-999.00,-999.00,-999.0,no,no,no,300234066305100,IT,YorkU,CASIMBO,North
2018-05-04T07:59:31Z,1525420771,2018,8,0,124.333,124.333,83.73108,-78.02221,-999.00,-999.00,-999.0,no,no,no,300234066305100,IT,YorkU,CASIMBO,North
2018-05-04T08:09:36Z,1525421376,2018,8,10,124.34,124.34,83.73108,-78.02219,-999.00,-999.00,-999.0,no,no,no,300234066305100,IT,YorkU,CASIMBO,North
2018-05-04T08:19:40Z,1525421981,2018,8,20,124.347,124.347,83.73108,-78.02223,-999.00,-999.00,-999.0,no,no,no,300234066305100,IT,YorkU,CASIMBO,North
2018-05-04T08:29:45Z,1525422586,2018,8,30,124.354,124.354,83.73108,-78.02221,-999.00,-999.00,-999.0,no,no,no,300234066305100,IT,YorkU,CASIMBO,North
2018-05-04T08:39:50Z,1525423190,2018,8,40,124.361,124.361,83.73108,-78.02221,-999.00,-999.00,-999.0,no,no,no,300234066305100,IT,YorkU,CASIMBO,North
2018-05-04T08:49:55Z,1525423795,2018,8,50,124.368,124.368,83.73108,-78.02224,-999.00,-999.00,-999.0,no,no,no,300234066305100,IT,YorkU,CASIMBO,North
2018-05-04T09:00:00Z,1525424400,2018,9,0,124.375,124.375,83.73107,-78.02226,-999.00,-999.00,-999.0,no,no,no,300234066305100,IT,YorkU,CASIMBO,North
2018-05-04T09:10:04Z,1525425005,2018,9,10,124.382,124.382,83.73107,-78.02226,-999.00,-999.00,-999.0,no,no,no,300234066305100,IT,YorkU,CASIMBO,North
2018-05-04T09:20:09Z,1525425610,2018,9,20,124.389,124.389,83.73107,-78.02229,-999.00,-999.00,-999.0,no,no,no,300234066305100,IT,YorkU,CASIMBO,North
2018-05-04T09:30:14Z,1525426214,2018,9,30,124.396,124.396,83.73107,-78.02229,-999.00,-999.00,-999.0,no,no,no,300234066305100,IT,YorkU,CASIMBO,North
2018-05-04T09:40:19Z,1525426819,2018,9,40,124.403,124.403,83.73107,-78.02216,-999.00,-999.00,-999.0,no,no,no,300234066305100,IT,YorkU,CASIMBO,North
2018-05-04T09:50:24Z,1525427424,2018,9,50,124.41,124.41,83.73107,-78.02218,-999.00,-999.00,-999.0,no,no,no,300234066305100,IT,YorkU,CASIMBO,North
2018-05-04T10:00:28Z,1525428029,2018,10,0,124.417,124.417,83.73107,-78.02215,-999.00,-999.00,-999.0,no,no,no,300234066305100,IT,YorkU,CASIMBO,North
2018-05-04T10:10:33Z,1525428634,2018,10,10,124.424,124.424,83.73107,-78.02215,-999.00,-999.00,-999.0,no,no,no,300234066305100,IT,YorkU,CASIMBO,North
2018-05-04T10:20:38Z,1525429238,2018,10,20,124.431,124.431,83.73107,-78.02213,-999.00,-999.00,-999.0,no,no,no,300234066305100,IT,YorkU,CASIMBO,North
2018-05-04T10:30:43Z,1525429843,2018,10,30,124.438,124.438,83.73107,-78.02207,-999.00,-999.00,-999.0,no,no,no,300234066305100,IT,YorkU,CASIMBO,North
2018-05-04T10:39:21Z,1525430362,2018,10,40,124.444,124.444,83.73106,-78.02208,-999.00,-999.00,-999.0,no,no,no,300234066305100,IT,YorkU,CASIMBO,North
2018-05-04T10:49:26Z,1525430966,2018,10,50,124.451,124.451,83.73106,-78.022,-999.00,-999.00,-999.0,no,no,no,300234066305100,IT,YorkU,CASIMBO,North
2018-05-04T10:59:31Z,1525431571,2018,11,0,124.458,124.458,83.73105,-78.02193,-999.00,-999.00,-999.0,no,no,no,300234066305100,IT,YorkU,CASIMBO,North
2018-05-04T11:09:36Z,1525432176,2018,11,10,124.465,124.465,83.73103,-78.02212,-999.00,-999.00,-999.0,no,no,no,300234066305100,IT,YorkU,CASIMBO,North
2018-05-04T11:19:40Z,1525432781,2018,11,20,124.472,124.472,83.73099,-78.02207,-999.00,-999.00,-999.0,no,no,no,300234066305100,IT,YorkU,CASIMBO,North
2018-05-04T11:29:45Z,1525433386,2018,11,30,124.479,124.479,83.73099,-78.02213,-999.00,-999.00,-999.0,no,no,no,300234066305100,IT,YorkU,CASIMBO,North
2018-05-04T11:39:50Z,1525433990,2018,11,40,124.486,124.486,83.73098,-78.02204,-999.00,-999.00,-999.0,no,no,no,300234066305100,IT,YorkU,CASIMBO,North
2018-05-04T11:49:55Z,1525434595,2018,11,50,124.493,124.493,83.73098,-78.02207,-999.00,-999.00,-999.0,no,no,no,300234066305100,IT,YorkU,CASIMBO,North
2018-05-04T12:00:00Z,1525435200,2018,12,0,124.5,124.5,83.73097,-78.02214,-999.00,-999.00,-999.0,no,no,no,300234066305100,IT,YorkU,CASIMBO,North
2018-05-04T12:10:04Z,1525435805,2018,12,10,124.507,124.507,83.73097,-78.02219,-999.00,-999.00,-999.0,no,no,no,300234066305100,IT,YorkU,CASIMBO,North
2018-05-04T12:20:09Z,1525436410,2018,12,20,124.514,124.514,83.73097,-78.02219,-999.00,-999.00,-999.0,no,no,no,300234066305100,IT,YorkU,CASIMBO,North
2018-05-04T12:30:14Z,1525437014,2018,12,30,124.521,124.521,83.73097,-78.02216,-999.00,-999.00,-999.0,no,no,no,300234066305100,IT,YorkU,CASIMBO,North
2018-05-04T12:40:19Z,1525437619,2018,12,40,124.528,124.528,83.73097,-78.02209,-999.00,-999.00,-999.0,no,no,no,300234066305100,IT,YorkU,CASIMBO,North
2018-05-04T12:50:24Z,1525438224,2018,12,50,124.535,124.535,83.73097,-78.02204,-999.00,-999.00,-999.0,no,no,no,300234066305100,IT,YorkU,CASIMBO,North
2018-05-04T13:00:28Z,1525438829,2018,13,0,124.542,124.542,83.73097,-78.02211,-999.00,-999.00,-999.0,no,no,no,300234066305100,IT,YorkU,CASIMBO,North
2018-05-04T13:10:33Z,1525439434,2018,13,10,124.549,124.549,83.73097,-78.02211,-999.00,-999.00,-999.0,no,no,no,300234066305100,IT,YorkU,CASIMBO,North
2018-05-04T13:20:38Z,1525440038,2018,13,20,124.556,124.556,83.73095,-78.0222,-999.00,-999.00,-999.0,no,no,no,300234066305100,IT,YorkU,CASIMBO,North
2018-05-04T13:29:16Z,1525440557,2018,13,30,124.562,124.562,83.73095,-78.0224,-999.00,-999.00,-999.0,no,no,no,300234066305100,IT,YorkU,CASIMBO,North
2018-05-04T13:39:21Z,1525441162,2018,13,40,124.569,124.569,83.73094,-78.02223,-999.00,-999.00,-999.0,no,no,no,300234066305100,IT,YorkU,CASIMBO,North
2018-05-04T13:49:26Z,1525441766,2018,13,50,124.576,124.576,83.73094,-78.0222,-999.00,-999.00,-999.0,no,no,no,300234066305100,IT,YorkU,CASIMBO,North
2018-05-04T13:59:31Z,1525442371,2018,14,0,124.583,124.583,83.73092,-78.0222,-999.00,-999.00,-999.0,no,no,no,300234066305100,IT,YorkU,CASIMBO,North
2018-05-04T14:09:36Z,1525442976,2018,14,10,124.59,124.59,83.7309,-78.02227,-999.00,-999.00,-999.0,no,no,no,300234066305100,IT,YorkU,CASIMBO,North
2018-05-04T14:19:40Z,1525443581,2018,14,20,124.597,124.597,83.7309,-78.02234,-999.00,-999.00,-999.0,no,no,no,300234066305100,IT,YorkU,CASIMBO,North
2018-05-04T14:29:45Z,1525444186,2018,14,30,124.604,124.604,83.73089,-78.02243,-999.00,-999.00,-999.0,no,no,no,300234066305100,IT,YorkU,CASIMBO,North
2018-05-04T14:39:50Z,1525444790,2018,14,40,124.611,124.611,83.73089,-78.02242,-999.00,-999.00,-999.0,no,no,no,300234066305100,IT,YorkU,CASIMBO,North
2018-05-04T14:49:55Z,1525445395,2018,14,50,124.618,124.618,83.73089,-78.02241,-999.00,-999.00,-999.0,no,no,no,300234066305100,IT,YorkU,CASIMBO,North
2018-05-04T15:00:00Z,1525446000,2018,15,0,124.625,124.625,83.73089,-78.02241,-999.00,-999.00,-999.0,no,no,no,300234066305100,IT,YorkU,CASIMBO,North
2018-05-04T15:10:04Z,1525446605,2018,15,10,124.632,124.632,83.73089,-78.02238,-999.00,-999.00,-999.0,no,no,no,300234066305100,IT,YorkU,CASIMBO,North
2018-05-04T15:20:09Z,1525447210,2018,15,20,124.639,124.639,83.73089,-78.02231,-999.00,-999.00,-999.0,no,no,no,300234066305100,IT,YorkU,CASIMBO,North
2018-05-04T15:30:14Z,1525447814,2018,15,30,124.646,124.646,83.73089,-78.02228,-999.00,-999.00,-999.0,no,no,no,300234066305100,IT,YorkU,CASIMBO,North
2018-05-04T15:40:19Z,1525448419,2018,15,40,124.653,124.653,83.73089,-78.02235,-999.00,-999.00,-999.0,no,no,no,300234066305100,IT,YorkU,CASIMBO,North
2018-05-04T15:50:24Z,1525449024,2018,15,50,124.66,124.66,83.73089,-78.02237,-999.00,-999.00,-999.0,no,no,no,300234066305100,IT,YorkU,CASIMBO,North
2018-05-04T16:00:28Z,1525449629,2018,16,0,124.667,124.667,83.73089,-78.02238,-999.00,-999.00,-999.0,no,no,no,300234066305100,IT,YorkU,CASIMBO,North
2018-05-04T16:10:33Z,1525450234,2018,16,10,124.674,124.674,83.73089,-78.02248,-999.00,-999.00,-999.0,no,no,no,300234066305100,IT,YorkU,CASIMBO,North
2018-05-04T16:20:38Z,1525450838,2018,16,20,124.681,124.681,83.73084,-78.02241,-999.00,-999.00,-999.0,no,no,no,300234066305100,IT,YorkU,CASIMBO,North
2018-05-04T16:30:43Z,1525451443,2018,16,30,124.688,124.688,83.73081,-78.02282,-999.00,-999.00,-999.0,no,no,no,300234066305100,IT,YorkU,CASIMBO,North
2018-05-04T16:39:21Z,1525451962,2018,16,40,124.694,124.694,83.73074,-78.02226,-999.00,-999.00,-999.0,no,no,no,300234066305100,IT,YorkU,CASIMBO,North
2018-05-04T16:49:26Z,1525452566,2018,16,50,124.701,124.701,83.73071,-78.02237,-999.00,-999.00,-999.0,no,no,no,300234066305100,IT,YorkU,CASIMBO,North
2018-05-04T16:59:31Z,1525453171,2018,17,0,124.708,124.708,83.73065,-78.02266,-999.00,-999.00,-999.0,no,no,no,300234066305100,IT,YorkU,CASIMBO,North
2018-05-04T17:09:36Z,1525453776,2018,17,10,124.715,124.715,83.73061,-78.02296,-999.00,-999.00,-999.0,no,no,no,300234066305100,IT,YorkU,CASIMBO,North
2018-05-04T17:19:40Z,1525454381,2018,17,20,124.722,124.722,83.73055,-78.02323,-999.00,-999.00,-999.0,no,no,no,300234066305100,IT,YorkU,CASIMBO,North
2018-05-04T17:29:45Z,1525454986,2018,17,30,124.729,124.729,83.7305,-78.02343,-999.00,-999.00,-999.0,no,no,no,300234066305100,IT,YorkU,CASIMBO,North
2018-05-04T17:39:50Z,1525455590,2018,17,40,124.736,124.736,83.73045,-78.02353,-999.00,-999.00,-999.0,no,no,no,300234066305100,IT,YorkU,CASIMBO,North
2018-05-04T17:49:55Z,1525456195,2018,17,50,124.743,124.743,83.7304,-78.02355,-999.00,-999.00,-999.0,no,no,no,300234066305100,IT,YorkU,CASIMBO,North
2018-05-04T18:00:00Z,1525456800,2018,18,0,124.75,124.75,83.73039,-78.02352,-999.00,-999.00,-999.0,no,no,no,300234066305100,IT,YorkU,CASIMBO,North
2018-05-04T18:10:04Z,1525457405,2018,18,10,124.757,124.757,83.73037,-78.02351,-999.00,-999.00,-999.0,no,no,no,300234066305100,IT,YorkU,CASIMBO,North
2018-05-04T18:20:09Z,1525458010,2018,18,20,124.764,124.764,83.73037,-78.02355,-999.00,-999.00,-999.0,no,no,no,300234066305100,IT,YorkU,CASIMBO,North
2018-05-04T18:30:14Z,1525458614,2018,18,30,124.771,124.771,83.73036,-78.02348,-999.00,-999.00,-999.0,no,no,no,300234066305100,IT,YorkU,CASIMBO,North
2018-05-04T18:40:19Z,1525459219,2018,18,40,124.778,124.778,83.73036,-78.02353,-999.00,-999.00,-999.0,no,no,no,300234066305100,IT,YorkU,CASIMBO,North
2018-05-04T18:50:24Z,1525459824,2018,18,50,124.785,124.785,83.73036,-78.02353,-999.00,-999.00,-999.0,no,no,no,300234066305100,IT,YorkU,CASIMBO,North
2018-05-04T19:00:28Z,1525460429,2018,19,0,124.792,124.792,83.73036,-78.02354,-999.00,-999.00,-999.0,no,no,no,300234066305100,IT,YorkU,CASIMBO,North
2018-05-04T19:10:33Z,1525461034,2018,19,10,124.799,124.799,83.73036,-78.02356,-999.00,-999.00,-999.0,no,no,no,300234066305100,IT,YorkU,CASIMBO,North
2018-05-04T19:20:38Z,1525461638,2018,19,20,124.806,124.806,83.73036,-78.02356,-999.00,-999.00,-999.0,no,no,no,300234066305100,IT,YorkU,CASIMBO,North
2018-05-04T19:29:16Z,1525462157,2018,19,30,124.812,124.812,83.73033,-78.02359,-999.00,-999.00,-999.0,no,no,no,300234066305100,IT,YorkU,CASIMBO,North
2018-05-04T19:39:21Z,1525462762,2018,19,40,124.819,124.819,83.73022,-78.02377,-999.00,-999.00,-999.0,no,no,no,300234066305100,IT,YorkU,CASIMBO,North
2018-05-04T19:49:26Z,1525463366,2018,19,50,124.826,124.826,83.73011,-78.02397,-999.00,-999.00,-999.0,no,no,no,300234066305100,IT,YorkU,CASIMBO,North
2018-05-04T19:59:31Z,1525463971,2018,20,0,124.833,124.833,83.73,-78.02417,-999.00,-999.00,-999.0,no,no,no,300234066305100,IT,YorkU,CASIMBO,North
2018-05-04T20:09:36Z,1525464576,2018,20,10,124.84,124.84,83.72989,-78.02435,-999.00,-999.00,-999.0,no,no,no,300234066305100,IT,YorkU,CASIMBO,North
2018-05-04T20:19:40Z,1525465181,2018,20,20,124.847,124.847,83.72979,-78.02446,-999.00,-999.00,-999.0,no,no,no,300234066305100,IT,YorkU,CASIMBO,North
2018-05-04T20:29:45Z,1525465786,2018,20,30,124.854,124.854,83.72966,-78.02434,-999.00,-999.00,-999.0,no,no,no,300234066305100,IT,YorkU,CASIMBO,North
2018-05-04T20:39:50Z,1525466390,2018,20,40,124.861,124.861,83.72953,-78.02453,-999.00,-999.00,-999.0,no,no,no,300234066305100,IT,YorkU,CASIMBO,North
2018-05-04T20:49:55Z,1525466995,2018,20,50,124.868,124.868,83.72949,-78.02462,-999.00,-999.00,-999.0,no,no,no,300234066305100,IT,YorkU,CASIMBO,North
2018-05-04T21:00:00Z,1525467600,2018,21,0,124.875,124.875,83.72948,-78.02465,-999.00,-999.00,-999.0,no,no,no,300234066305100,IT,YorkU,CASIMBO,North
2018-05-04T21:10:04Z,1525468205,2018,21,10,124.882,124.882,83.72947,-78.0246,-999.00,-999.00,-999.0,no,no,no,300234066305100,IT,YorkU,CASIMBO,North
2018-05-04T21:20:09Z,1525468810,2018,21,20,124.889,124.889,83.72947,-78.02464,-999.00,-999.00,-999.0,no,no,no,300234066305100,IT,YorkU,CASIMBO,North
2018-05-04T21:30:14Z,1525469414,2018,21,30,124.896,124.896,83.72947,-78.02464,-999.00,-999.00,-999.0,no,no,no,300234066305100,IT,YorkU,CASIMBO,North
2018-05-04T21:40:19Z,1525470019,2018,21,40,124.903,124.903,83.72947,-78.02458,-999.00,-999.00,-999.0,no,no,no,300234066305100,IT,YorkU,CASIMBO,North
2018-05-04T21:50:24Z,1525470624,2018,21,50,124.91,124.91,83.72947,-78.02457,-999.00,-999.00,-999.0,no,no,no,300234066305100,IT,YorkU,CASIMBO,North
2018-05-04T22:00:28Z,1525471229,2018,22,0,124.917,124.917,83.72947,-78.02458,-999.00,-999.00,-999.0,no,no,no,300234066305100,IT,YorkU,CASIMBO,North
2018-05-04T22:10:33Z,1525471834,2018,22,10,124.924,124.924,83.72947,-78.02448,-999.00,-999.00,-999.0,no,no,no,300234066305100,IT,YorkU,CASIMBO,North
2018-05-04T22:20:38Z,1525472438,2018,22,20,124.931,124.931,83.72946,-78.0245,-999.00,-999.00,-999.0,no,no,no,300234066305100,IT,YorkU,CASIMBO,North
2018-05-04T22:30:43Z,1525473043,2018,22,30,124.938,124.938,83.72948,-78.02416,-999.00,-999.00,-999.0,no,no,no,300234066305100,IT,YorkU,CASIMBO,North
2018-05-04T22:39:21Z,1525473562,2018,22,40,124.944,124.944,83.72946,-78.02455,-999.00,-999.00,-999.0,no,no,no,300234066305100,IT,YorkU,CASIMBO,North
2018-05-04T22:49:26Z,1525474166,2018,22,50,124.951,124.951,83.7294,-78.02442,-999.00,-999.00,-999.0,no,no,no,300234066305100,IT,YorkU,CASIMBO,North
2018-05-04T22:59:31Z,1525474771,2018,23,0,124.958,124.958,83.7293,-78.02454,-999.00,-999.00,-999.0,no,no,no,300234066305100,IT,YorkU,CASIMBO,North
2018-05-04T23:09:36Z,1525475376,2018,23,10,124.965,124.965,83.72919,-78.02494,-999.00,-999.00,-999.0,no,no,no,300234066305100,IT,YorkU,CASIMBO,North
2018-05-04T23:19:40Z,1525475981,2018,23,20,124.972,124.972,83.72908,-78.02509,-999.00,-999.00,-999.0,no,no,no,300234066305100,IT,YorkU,CASIMBO,North
2018-05-04T23:29:45Z,1525476586,2018,23,30,124.979,124.979,83.72896,-78.02531,-999.00,-999.00,-999.0,no,no,no,300234066305100,IT,YorkU,CASIMBO,North